Tiempo cada hora Ablyazovo

Hoy, 24 Octubre, Sábado

Tiempo Temperatura Precipitaciones Viento Presión Humedad
00:00 -1°C° 1 mm 6 mps 751 mmHg 95%
01:00 -1°C° 1 mm 6 mps 750 mmHg 95%
02:00 +1°C° 0.7 mm 6 mps 750 mmHg 94%
03:00 +2°C° 0.7 mm 6 mps 749 mmHg 94%
04:00 +2°C° 0.7 mm 6 mps 749 mmHg 94%
05:00 +3°C° 0.3 mm 6 mps 748 mmHg 92%
06:00 +3°C° 0.3 mm 7 mps 748 mmHg 90%
07:00 +3°C° 0.3 mm 7 mps 747 mmHg 88%
08:00 +4°C° 0.2 mm 7 mps 747 mmHg 88%
09:00 +4°C° 0.2 mm 6 mps 746 mmHg 87%
10:00 +5°C° 0.2 mm 6 mps 746 mmHg 87%
11:00 +5°C° 1.1 mm 6 mps 746 mmHg 90%
12:00 +7°C° 1.1 mm 6 mps 745 mmHg 92%
13:00 +8°C° 1.1 mm 7 mps 745 mmHg 95%
14:00 +8°C° 1 mm 6 mps 745 mmHg 95%
15:00 +9°C° 1 mm 6 mps 745 mmHg 95%
16:00 +9°C° 1 mm 6 mps 745 mmHg 95%
17:00 +9°C° 0.1 mm 5 mps 745 mmHg 95%
18:00 +9°C° 0.1 mm 5 mps 745 mmHg 95%
19:00 +10°C° 0.1 mm 4 mps 745 mmHg 96%
20:00 +10°C° 0 mm 4 mps 746 mmHg 96%
21:00 +9°C° 0 mm 5 mps 746 mmHg 96%
22:00 +9°C° 0 mm 5 mps 746 mmHg 97%
23:00 +10°C° 0 mm 4 mps 746 mmHg 96%

Mañana, 25 Octubre, Domingo

Tiempo Temperatura Precipitaciones Viento Presión Humedad
00:00 +10°C° 0 mm 3 mps 746 mmHg 96%
01:00 +10°C° 0 mm 3 mps 746 mmHg 95%
02:00 +10°C° 0 mm 2 mps 747 mmHg 96%
03:00 +10°C° 0 mm 2 mps 747 mmHg 96%
04:00 +9°C° 0 mm 2 mps 747 mmHg 96%
05:00 +9°C° 0 mm 2 mps 747 mmHg 97%
06:00 +9°C° 0 mm 2 mps 747 mmHg 97%
07:00 +9°C° 0 mm 2 mps 747 mmHg 97%
08:00 +9°C° 0 mm 2 mps 747 mmHg 96%
09:00 +10°C° 0 mm 2 mps 747 mmHg 94%
10:00 +10°C° 0 mm 2 mps 747 mmHg 92%
11:00 +12°C° 0.1 mm 2 mps 746 mmHg 91%
12:00 +12°C° 0.1 mm 2 mps 746 mmHg 90%
13:00 +13°C° 0.1 mm 2 mps 745 mmHg 89%
14:00 +12°C° 1.8 mm 3 mps 745 mmHg 92%
15:00 +11°C° 1.8 mm 3 mps 744 mmHg 95%
16:00 +11°C° 1.8 mm 3 mps 744 mmHg 98%
17:00 +11°C° 1 mm 3 mps 743 mmHg 97%
18:00 +11°C° 1 mm 4 mps 742 mmHg 97%
19:00 +11°C° 1 mm 4 mps 742 mmHg 97%
20:00 +11°C° 0.3 mm 4 mps 741 mmHg 96%
21:00 +12°C° 0.3 mm 5 mps 741 mmHg 95%
22:00 +11°C° 0.3 mm 6 mps 740 mmHg 94%
23:00 +10°C° 0.5 mm 6 mps 740 mmHg 94%

Pasado mañana, 26 Octubre, Lunes

Tiempo Temperatura Precipitaciones Viento Presión Humedad
00:00 +10°C° 0.5 mm 6 mps 740 mmHg 93%
01:00 +10°C° 0.5 mm 6 mps 740 mmHg 93%
02:00 +9°C° 0.1 mm 6 mps 740 mmHg 88%
03:00 +8°C° 0.1 mm 7 mps 741 mmHg 84%
04:00 +6°C° 0.1 mm 8 mps 741 mmHg 80%
05:00 +6°C° 0 mm 8 mps 742 mmHg 78%
06:00 +5°C° 0 mm 8 mps 743 mmHg 76%
07:00 +4°C° 0 mm 8 mps 743 mmHg 75%
08:00 +4°C° 0 mm 8 mps 744 mmHg 73%
09:00 +4°C° 0 mm 8 mps 745 mmHg 71%
10:00 +2°C° 0 mm 8 mps 746 mmHg 69%
11:00 +2°C° 0 mm 8 mps 746 mmHg 64%
12:00 +4°C° 0 mm 7 mps 746 mmHg 59%
13:00 +4°C° 0 mm 7 mps 747 mmHg 54%
14:00 +3°C° 0 mm 7 mps 747 mmHg 56%
15:00 +3°C° 0 mm 7 mps 748 mmHg 58%
16:00 +3°C° 0 mm 7 mps 748 mmHg 60%
17:00 +2°C° 0 mm 7 mps 748 mmHg 62%
18:00 +1°C° 0 mm 6 mps 748 mmHg 64%
19:00 +1°C° 0 mm 5 mps 749 mmHg 66%
20:00 -1°C° 0 mm 6 mps 749 mmHg 71%
21:00 -1°C° 0 mm 7 mps 749 mmHg 75%
22:00 -2°C° 0 mm 8 mps 749 mmHg 80%
23:00 -2°C° 0 mm 8 mps 749 mmHg 77%

, 27 Octubre, Martes

Tiempo Temperatura Precipitaciones Viento Presión Humedad
00:00 -3°C° 0 mm 7 mps 749 mmHg 74%
01:00 -3°C° 0 mm 7 mps 750 mmHg 71%
02:00 -3°C° 0 mm 7 mps 750 mmHg 71%
03:00 -3°C° 0 mm 7 mps 751 mmHg 71%
04:00 -3°C° 0 mm 7 mps 751 mmHg 70%
05:00 -3°C° 0 mm 7 mps 752 mmHg 70%
06:00 -3°C° 0 mm 7 mps 752 mmHg 70%
07:00 -4°C° 0 mm 7 mps 752 mmHg 71%
08:00 -4°C° 0 mm 8 mps 753 mmHg 68%
09:00 -4°C° 0 mm 8 mps 753 mmHg 66%
10:00 -2°C° 0 mm 8 mps 753 mmHg 64%
11:00 -2°C° 0 mm 8 mps 753 mmHg 63%
12:00 -1°C° 0 mm 8 mps 754 mmHg 62%
13:00 0°C° 0 mm 8 mps 754 mmHg 61%
14:00 -1°C° 0 mm 8 mps 755 mmHg 63%
15:00 -1°C° 0 mm 8 mps 755 mmHg 65%
16:00 -1°C° 0 mm 8 mps 755 mmHg 67%
17:00 -2°C° 0 mm 7 mps 756 mmHg 70%
18:00 -2°C° 0 mm 6 mps 757 mmHg 73%
19:00 -2°C° 0 mm 5 mps 757 mmHg 76%
20:00 -2°C° 0 mm 5 mps 758 mmHg 78%
21:00 -4°C° 0 mm 5 mps 758 mmHg 80%
22:00 -3°C° 0 mm 4 mps 758 mmHg 81%
23:00 -3°C° 0 mm 4 mps 759 mmHg 82%

27 Octubre, Martes

Tiempo Temperatura Precipitaciones Viento Presión Humedad
00:00 -3°C° 0 mm 7 mps 749 mmHg 74%
01:00 -3°C° 0 mm 7 mps 750 mmHg 71%
02:00 -3°C° 0 mm 7 mps 750 mmHg 71%
03:00 -3°C° 0 mm 7 mps 751 mmHg 71%
04:00 -3°C° 0 mm 7 mps 751 mmHg 70%
05:00 -3°C° 0 mm 7 mps 752 mmHg 70%
06:00 -3°C° 0 mm 7 mps 752 mmHg 70%
07:00 -4°C° 0 mm 7 mps 752 mmHg 71%
08:00 -4°C° 0 mm 8 mps 753 mmHg 68%
09:00 -4°C° 0 mm 8 mps 753 mmHg 66%
10:00 -2°C° 0 mm 8 mps 753 mmHg 64%
11:00 -2°C° 0 mm 8 mps 753 mmHg 63%
12:00 -1°C° 0 mm 8 mps 754 mmHg 62%
13:00 0°C° 0 mm 8 mps 754 mmHg 61%
14:00 -1°C° 0 mm 8 mps 755 mmHg 63%
15:00 -1°C° 0 mm 8 mps 755 mmHg 65%
16:00 -1°C° 0 mm 8 mps 755 mmHg 67%
17:00 -2°C° 0 mm 7 mps 756 mmHg 70%
18:00 -2°C° 0 mm 6 mps 757 mmHg 73%
19:00 -2°C° 0 mm 5 mps 757 mmHg 76%
20:00 -2°C° 0 mm 5 mps 758 mmHg 78%
21:00 -4°C° 0 mm 5 mps 758 mmHg 80%
22:00 -3°C° 0 mm 4 mps 758 mmHg 81%
23:00 -3°C° 0 mm 4 mps 759 mmHg 82%

28 Octubre, Miércoles

Tiempo Temperatura Precipitaciones Viento Presión Humedad
00:00 -3°C° 0 mm 4 mps 759 mmHg 82%
01:00 -3°C° 0 mm 4 mps 759 mmHg 83%
02:00 -2°C° 0 mm 3 mps 759 mmHg 83%
03:00 -4°C° 0 mm 3 mps 760 mmHg 84%
04:00 -4°C° 0 mm 3 mps 760 mmHg 84%
05:00 -4°C° 0 mm 3 mps 760 mmHg 84%
06:00 -4°C° 0 mm 3 mps 761 mmHg 85%
07:00 -4°C° 0 mm 3 mps 761 mmHg 85%
08:00 -2°C° 0 mm 3 mps 762 mmHg 78%
09:00 -1°C° 0 mm 3 mps 762 mmHg 70%
10:00 0°C° 0 mm 3 mps 762 mmHg 63%
11:00 +1°C° 0 mm 3 mps 762 mmHg 57%
12:00 +3°C° 0 mm 3 mps 763 mmHg 52%
13:00 +4°C° 0 mm 3 mps 763 mmHg 47%
14:00 +3°C° 0 mm 3 mps 763 mmHg 50%
15:00 +3°C° 0 mm 3 mps 763 mmHg 53%
16:00 +3°C° 0 mm 3 mps 763 mmHg 56%
17:00 +2°C° 0 mm 2 mps 763 mmHg 61%
18:00 +1°C° 0 mm 2 mps 764 mmHg 67%
19:00 -1°C° 0 mm 2 mps 764 mmHg 72%
20:00 -1°C° 0 mm 2 mps 764 mmHg 73%
21:00 -1°C° 0 mm 2 mps 764 mmHg 74%
22:00 0°C° 0 mm 1 mps 765 mmHg 74%
23:00 0°C° 0 mm 1 mps 765 mmHg 74%

29 Octubre, Jueves

Tiempo Temperatura Precipitaciones Viento Presión Humedad
00:00 0°C° 0 mm 1 mps 765 mmHg 74%
01:00 0°C° 0 mm 1 mps 765 mmHg 74%
02:00 -1°C° 0 mm 0 mps 765 mmHg 74%
03:00 -1°C° 0 mm 0 mps 765 mmHg 74%
04:00 -1°C° 0 mm 0 mps 765 mmHg 74%
05:00 -1°C° 0 mm 0 mps 766 mmHg 74%
06:00 0°C° 0 mm 1 mps 766 mmHg 74%
07:00 0°C° 0 mm 1 mps 766 mmHg 75%
08:00 +1°C° 0 mm 1 mps 766 mmHg 69%
09:00 +2°C° 0 mm 1 mps 766 mmHg 64%
10:00 +3°C° 0 mm 1 mps 766 mmHg 58%
11:00 +4°C° 0 mm 1 mps 766 mmHg 54%
12:00 +4°C° 0 mm 2 mps 766 mmHg 49%
13:00 +5°C° 0 mm 2 mps 766 mmHg 45%
14:00 +6°C° 0 mm 1 mps 766 mmHg 47%
15:00 +6°C° 0 mm 1 mps 766 mmHg 48%
16:00 +6°C° 0 mm 1 mps 766 mmHg 50%
17:00 +5°C° 0 mm 1 mps 766 mmHg 52%
18:00 +4°C° 0 mm 1 mps 766 mmHg 54%
19:00 +3°C° 0 mm 1 mps 767 mmHg 57%
20:00 +3°C° 0 mm 1 mps 767 mmHg 58%
21:00 +3°C° 0 mm 1 mps 766 mmHg 59%
22:00 +3°C° 0 mm 1 mps 766 mmHg 61%
23:00 +2°C° 0 mm 1 mps 766 mmHg 61%
Mostrar más

Necesitamos Su Consentimiento

Meteoprog y nuestros Proveedores de Servicios pueden almacenar y acceder a sus datos personales como cookies, identificadores de dispositivo u otras tecnologías similares de su dispositivo y procesar dichos datos para personalizar contenido y anuncios, además de ofrecer funciones de redes sociales y analizar el tráfico.

  • Almacenar y/o acceder a información en su dispositivo

    Se puede almacenar o acceder a cookies, identificadores de dispositivo u otra información de su dispositivo para los fines anteriormente indicados.

  • Anuncios y contenido personalizados, medición de anuncios y contenido, percepciones del público, y desarrollo de productos

    Los anuncios y el contenido pueden personalizarse en base a su perfil. Se pueden añadir más datos para personalizar mejor los anuncios y contenidos. Se puede medir el rendimiento de los anuncios y contenidos. Se puede obtener la percepción sobre el público que ha visto los anuncios y contenidos. Dichos datos pueden usarse para desarrollar o mejorar la experiencia del usuario, sistemas y software.

Al hacer clic en ‘Estoy De Acuerdo’ usted permitirá el uso de las cookies, identificadores de dispositivo, balizas web u otras tecnologías similares indicadas. Su configuración puede cambiarse desde el navegador de su dispositivo.

Para ciertos fines, los intereses legítimos pueden ser considerados por encima del consentimiento. Puede leer más sobre ello en nuestra Política de Privacidad y Cookies.